TimeEET,TemperatureF,Dew PointF,Humidity,Sea Level PressureIn,VisibilityMPH,Wind Direction,Wind SpeedMPH,Gust SpeedMPH,PrecipitationIn,Events,Conditions,WindDirDegrees,DateUTC
12:00 AM,89.6,35.6,15,29.74,-9999.0,West,5.8,-,N/A,,Clear,260,2013-06-20 22:00:00
1:00 AM,89.6,37.4,16,29.74,-9999.0,West,6.9,-,N/A,,Clear,280,2013-06-20 23:00:00
2:00 AM,88,38,9,29.71,6,North,4.6,,,,,0,2013-06-21 00:00:00
2:00 AM,87.8,37.4,17,29.74,-9999.0,North,4.6,-,N/A,,Clear,360,2013-06-21 00:00:00
3:00 AM,87.8,37.4,17,29.74,-9999.0,NW,4.6,-,N/A,,Clear,320,2013-06-21 01:00:00
4:00 AM,86.0,37.4,18,29.74,-9999.0,NNW,4.6,-,N/A,,Clear,330,2013-06-21 02:00:00
5:00 AM,86.0,37.4,18,29.74,-9999.0,WNW,4.6,-,N/A,,Clear,290,2013-06-21 03:00:00
6:00 AM,84.2,37.4,19,29.77,-9999.0,West,8.1,-,N/A,,Clear,260,2013-06-21 04:00:00
7:00 AM,89.6,37.4,16,29.77,-9999.0,WSW,5.8,-,N/A,,Clear,250,2013-06-21 05:00:00
8:00 AM,94,38,7,29.75,6,WNW,8.1,,,,,290,2013-06-21 06:00:00
8:00 AM,95.0,37.4,13,29.77,-9999.0,WNW,8.1,-,N/A,,Clear,290,2013-06-21 06:00:00
9:00 AM,98.6,39.2,13,29.80,-9999.0,NW,8.1,-,N/A,,Clear,310,2013-06-21 07:00:00
10:00 AM,102.2,39.2,11,29.80,-9999.0,NW,9.2,-,N/A,,Clear,310,2013-06-21 08:00:00
11:00 AM,102.2,35.6,10,29.77,-9999.0,West,9.2,-,N/A,,Clear,270,2013-06-21 09:00:00
12:00 PM,104.0,35.6,9,29.77,-9999.0,WNW,8.1,-,N/A,,Clear,290,2013-06-21 10:00:00
1:00 PM,104.0,32.0,8,29.74,-9999.0,WNW,9.2,-,N/A,,Clear,300,2013-06-21 11:00:00
2:00 PM,105,29,4,29.68,6,WNW,15.0,,,,Clear,300,2013-06-21 12:00:00
2:00 PM,105.8,28.4,7,29.74,-9999.0,NNW,15.0,-,N/A,,Clear,330,2013-06-21 12:00:00
3:00 PM,105.8,30.2,7,29.71,-9999.0,West,10.4,-,N/A,,Clear,270,2013-06-21 13:00:00
4:00 PM,105.8,32.0,8,29.71,-9999.0,WNW,13.8,-,N/A,,Clear,290,2013-06-21 14:00:00
5:00 PM,104.0,32.0,8,29.71,-9999.0,West,16.1,-,N/A,,Clear,280,2013-06-21 15:00:00
6:00 PM,104.0,33.8,9,29.71,-9999.0,West,12.7,-,N/A,,Clear,280,2013-06-21 16:00:00
7:00 PM,100.4,32.0,9,29.71,-9999.0,WNW,15.0,-,N/A,,Clear,290,2013-06-21 17:00:00
8:00 PM,98,30,4,29.65,6,WNW,13.8,,,,,300,2013-06-21 18:00:00
8:00 PM,98.6,30.2,9,29.71,-9999.0,WNW,13.8,-,N/A,,Clear,300,2013-06-21 18:00:00
9:00 PM,95.0,30.2,10,29.71,-9999.0,Calm,Calm,-,N/A,,Clear,0,2013-06-21 19:00:00
10:00 PM,107.6,30.2,7,29.77,-9999.0,WNW,6.9,-,N/A,,Clear,290,2013-06-21 20:00:00
11:00 PM,102.2,30.2,8,29.74,-9999.0,WSW,3.5,-,N/A,,Clear,250,2013-06-21 21:00:00